SCP
0 0 0 0 0 0 0 0 0 0 0 0 0 0 0 0 0 0 0 0 0 0 0 0 0 0 0 0 0 0 0 0 0 0 0 0 0 0 0 0 0 0 0 0
0 0 0 0 0 0 0 0 0 0 0 0 0 0 0 0 0 0 0 0 0 0 0 0 0 0 0 0 0 0 0 0 0 0 0 0 0 0 0 0 0 0 0 0
0 0 0 0 0 0 0 0 0 0 0 0 0 0 0 0 0 0 0 0 0 0 0 0 0 0 0 0 0 0 0 0 0 0 0 0 0 0 0 0 0 0 0 0
0 0 0 0 0 0 0 0 0 0 0 0 0 0 0 0 0 0 0 0 0 0 0 0 0 0 0 0 0 0 0 0 0 0 0 0 0 0 0 0 0 0 0 0
0 0 0 0 0 0 0 0 0 0 0 0 0 0 0 0 0 0 0 0 0 0 0 0 0 0 0 0 0 0 0 0 0 0 0 0 0 0 0 1 1 1 0 0
0 0 0 0 0 0 0 0 0 0 0 0 0 0 0 0 0 0 0 0 0 0 0 0 0 0 0 0 0 0 0 0 0 0 0 0 0 0 0 1 1 1 0 0
0 0 0 0 0 0 0 0 0 0 0 0 0 0 0 0 0 0 0 0 0 0 0 0 0 0 0 0 0 0 0 0 0 0 0 0 0 0 0 0 0 0 0 0
0 0 0 0 0 0 0 0 0 0 0 0 0 0 0 0 0 0 0 0 0 0 0 0 0 0 0 0 0 0 0 0 0 0 0 0 0 0 0 0 0 0 0 0
0 0 0 0 0 0 0 0 0 0 0 0 0 0 0 0 0 0 0 0 0 0 0 0 0 0 0 0 0 0 0 0 0 0 0 0 0 0 0 0 0 0 0 0
0 0 0 0 0 0 0 0 0 0 0 0 0 0 0 0 0 0 0 0 0 0 0 0 0 0 0 0 0 0 0 0 0 0 0 0 0 0 0 0 0 0 0 0
0 0 0 0 0 0 0 0 0 0 0 0 0 0 0 0 0 0 0 0 0 0 0 0 0 0 0 0 0 0 0 0 0 0 0 0 0 0 0 0 0 0 0 0
0 0 0 0 0 0 0 0 0 0 0 0 0 0 0 0 0 0 0 0 0 0 0 0 0 0 0 0 0 0 0 0 0 0 0 0 0 0 0 0 0 0 0 0
0 0 0 0 0 0 0 0 0 0 0 0 0 0 0 0 0 0 0 0 0 0 0 0 0 0 0 0 0 0 0 0 0 0 0 0 0 0 0 0 0 0 0 0
0 0 0 0 0 0 0 0 0 0 0 0 0 0 0 0 0 0 0 0 0 0 0 0 0 0 0 0 0 0 0 0 0 0 0 0 0 0 0 0 0 0 0 0
0 0 0 0 0 0 0 0 0 0 0 0 0 0 0 0 0 0 0 0 0 0 0 0 0 0 0 0 0 0 0 0 0 0 0 0 0 0 0 0 0 0 0 0
0 0 0 0 0 0 0 0 0 0 0 0 0 0 0 0 0 0 0 0 0 0 0 0 0 0 0 0 0 0 0 0 0 0 0 0 0 0 0 0 0 0 0 0
0 0 0 0 0 0 0 0 0 0 0 0 0 0 0 0 0 0 0 0 0 0 0 0 0 0 0 0 0 0 0 0 0 0 0 0 0 0 0 0 0 0 0 0
0 0 0 0 0 0 0 0 0 0 0 0 0 0 0 0 0 0 0 0 0 0 0 0 0 0 0 0 0 0 0 0 0 0 0 0 0 0 0 0 0 0 0 0
0 0 0 0 0 0 0 0 0 0 0 0 0 0 0 0 0 0 0 0 0 0 0 0 0 0 0 0 0 0 0 0 0 0 0 0 0 0 0 0 0 0 0 0
0 0 0 0 0 0 0 0 0 0 0 0 0 0 0 0 0 0 0 0 0 0 0 0 0 0 0 0 0 0 0 0 0 0 0 0 0 0 0 0 0 0 0 0
0 0 0 0 0 0 0 0 0 0 0 0 0 0 0 0 0 0 0 0 0 0 0 0 0 0 0 0 0 0 0 0 0 0 0 0 0 0 0 0 0 0 0 0
0 0 0 0 0 0 0 0 0 0 0 0 0 0 0 0 0 0 0 0 0 0 0 0 0 0 0 0 0 0 0 0 0 0 0 0 0 0 0 0 0 0 0 0
0 0 0 0 0 0 0 0 0 0 0 0 0 0 0 0 0 0 0 0 0 0 0 0 0 0 0 0 0 0 0 0 0 0 0 0 0 0 0 0 0 0 0 0
0 0 0 0 0 0 0 0 0 0 0 0 0 0 0 0 0 0 0 0 0 0 0 0 0 0 0 0 0 0 0 0 0 0 0 0 0 0 0 0 0 0 0 0
0 0 0 0 0 0 0 0 0 0 0 0 0 0 0 0 0 0 0 0 0 0 0 0 0 0 0 0 0 0 0 0 0 0 0 0 0 0 0 0 0 0 0 0
0 0 0 0 0 0 0 0 0 0 0 0 0 0 0 0 0 0 0 0 0 0 0 0 0 0 0 0 0 0 0 0 0 0 0 0 0 0 0 0 0 0 0 0
Wind_Speed
4 9 13 15 9 6 11 10 8 5 2 6 9 12 12 8 8 11 10 9 9 9 7 6 8 10 12 14 16 16 16 15 13 10 10 9 9 8 8 8 10 11 11 11
7 12 8 8 8 9 9 9 7 3 2 2 4 10 12 10 9 10 11 10 9 8 6 5 6 7 10 13 15 16 16 16 15 12 10 8 8 8 9 8 10 12 12 12
12 5 10 10 10 9 6 8 8 6 4 2 3 8 8 6 5 6 8 8 8 7 8 5 4 5 7 9 11 11 14 14 15 14 9 6 6 5 6 8 8 10 11 11
6 5 9 12 11 10 8 4 8 8 6 2 2 6 5 4 6 6 5 5 4 4 4 3 2 2 3 5 6 9 10 11 12 13 11 12 10 10 10 8 7 8 10 11
9 9 10 12 10 8 6 6 6 4 4 2 4 6 7 2 7 6 4 2 0 1 1 2 2 2 2 0 2 5 7 8 9 11 11 11 10 9 6 4 4 5 6 8
4 3 4 6 5 7 12 9 7 4 2 6 7 8 8 6 6 3 3 2 3 3 4 4 5 5 5 5 4 4 5 4 5 7 8 9 9 8 6 4 4 4 3 4
5 2 2 5 10 5 8 10 5 4 5 7 3 7 11 5 3 3 2 1 3 4 4 5 6 7 7 8 7 7 7 6 4 4 4 4 5 5 5 4 4 3 3 3
13 10 10 7 8 12 10 13 9 9 8 4 3 10 8 2 2 2 2 2 4 5 5 6 7 7 8 8 8 9 9 8 7 6 5 4 2 1 0 0 1 2 2 3
15 9 4 3 1 11 11 8 3 5 3 2 7 8 10 4 4 5 5 6 7 6 7 7 7 8 8 9 9 9 10 10 9 8 7 6 5 4 3 3 2 1 2 3
9 8 3 3 4 4 3 11 6 6 7 6 6 7 7 7 9 8 9 9 9 8 7 8 8 8 8 9 9 10 10 10 9 9 8 6 6 5 4 3 3 3 3 3
5 9 4 5 11 13 8 7 7 7 5 7 6 7 5 8 9 12 11 10 10 9 8 7 7 8 8 8 9 9 9 9 9 8 8 8 7 6 5 5 5 4 4 4
5 7 6 6 0 2 5 10 11 9 8 6 5 6 2 4 6 9 11 10 9 9 8 8 8 8 8 8 8 9 8 9 8 7 7 7 7 6 6 6 5 5 4 4
9 9 8 4 3 4 6 6 7 4 6 7 8 6 2 3 6 8 11 11 9 9 9 8 7 7 7 7 7 8 8 7 7 7 7 7 7 7 6 6 5 5 5 5
6 7 10 16 10 12 9 9 9 8 7 9 14 9 4 7 10 12 13 12 11 10 9 8 7 7 6 6 6 7 7 6 6 6 7 7 7 6 6 6 6 6 6 5
5 7 5 2 4 10 12 16 17 18 19 16 16 15 12 13 14 15 14 13 12 11 10 9 8 7 6 6 6 6 6 6 6 6 7 7 6 6 6 7 7 6 6 6
6 6 6 3 4 5 6 15 22 23 20 21 15 15 6 9 10 12 14 15 14 13 11 9 8 7 6 5 5 5 6 6 5 6 7 6 6 6 6 7 7 6 6 6
8 8 7 6 5 3 10 16 19 17 15 15 22 16 8 11 14 16 17 17 16 14 13 11 9 8 6 5 4 5 5 4 5 5 5 5 6 6 6 6 6 7 7 7
9 7 5 7 7 13 10 4 14 17 16 16 11 5 14 15 14 11 13 16 15 14 13 11 9 8 6 5 5 4 4 4 4 4 4 5 6 6 6 7 7 7 7 7
7 8 6 7 10 10 5 5 9 13 16 14 15 10 7 7 6 4 7 11 12 12 11 10 8 8 7 5 4 4 4 4 4 4 4 5 6 6 7 7 8 8 8 8
6 6 6 7 9 13 6 5 5 6 10 8 13 13 12 13 10 9 10 11 12 11 10 9 8 8 6 5 3 4 3 3 4 4 5 6 6 6 7 8 8 8 8 9
10 7 9 8 8 9 3 5 9 10 8 3 9 11 14 13 6 9 14 12 12 12 10 10 9 7 5 4 3 3 3 3 4 5 6 6 6 7 8 8 7 8 8 9
13 10 11 9 10 10 8 10 12 5 2 3 5 8 9 6 10 14 15 14 13 12 10 9 8 6 5 4 3 3 3 4 5 6 6 7 7 7 6 7 8 7 8 9
9 8 7 9 7 1 8 6 3 4 4 4 5 7 11 11 12 14 13 13 12 11 9 7 7 7 5 4 4 2 3 5 5 6 6 7 8 7 7 7 8 8 7 7
4 1 4 4 4 2 3 1 2 3 3 4 6 10 11 12 14 13 12 10 10 8 7 5 6 5 3 3 3 3 4 5 5 6 7 7 7 8 7 6 6 6 7 7
6 8 5 5 2 1 4 6 5 4 4 6 6 6 11 14 13 12 10 9 8 7 5 4 4 3 2 2 2 3 4 4 5 6 6 6 6 7 8 7 7 8 8 8
6 8 10 8 8 7 6 7 9 8 8 10 9 7 6 9 12 11 9 8 7 7 5 4 4 2 1 1 2 2 3 3 4 5 5 5 6 6 7 8 8 10 11 14
Wind_Direction
153 185 194 188 191 179 170 173 180 171 132 200 229 252 260 257 254 257 255 249 246 249 254 243 232 223 220 219 217 216 214 211 206 205 207 210 215 213 213 214 212 210 210 208
162 206 183 136 122 123 150 168 167 125 99 211 254 265 264 255 248 249 254 254 256 257 250 243 238 221 216 217 216 217 216 212 209 210 211 214 218 217 216 213 215 214 213 210
187 166 144 139 145 136 159 175 169 151 128 96 298 267 246 240 239 251 250 257 263 265 270 266 249 233 220 220 218 216 217 215 213 213 213 207 211 214 211 217 218 216 214 214
170 145 157 160 174 169 188 179 146 142 165 181 258 269 257 242 265 245 236 235 256 271 270 277 273 244 225 228 222 220 217 216 214 211 212 212 215 221 225 224 221 215 212 216
178 162 164 181 181 158 132 115 114 125 143 200 205 251 265 260 255 232 194 187 352 18 44 59 47 40 39 63 190 198 201 207 210 210 213 217 224 231 235 229 224 222 217 220
113 158 173 156 113 123 127 103 80 82 157 241 210 222 259 223 222 184 152 118 77 76 82 76 69 69 67 73 92 120 142 158 183 197 207 215 222 226 226 224 227 231 233 234
136 147 115 128 115 124 163 145 145 174 207 230 152 226 249 242 225 215 199 127 82 90 94 87 80 75 71 72 79 92 101 100 112 141 171 197 214 222 230 233 236 243 246 249
172 187 191 184 165 166 185 182 176 185 203 197 178 234 251 271 270 241 213 156 115 107 99 88 81 79 76 73 76 84 87 85 84 88 89 86 96 133 156 225 262 262 271 278
183 179 113 163 159 153 163 192 140 118 100 197 222 252 281 249 219 188 169 150 134 120 106 95 87 81 78 74 71 77 83 81 77 79 80 75 70 71 69 56 35 2 338 324
151 148 135 135 112 16 188 146 144 165 165 216 236 235 231 202 192 172 163 154 139 127 113 101 90 83 77 76 77 75 76 79 77 76 74 71 67 63 60 55 41 17 356 343
130 131 132 170 196 176 145 169 175 171 190 194 227 239 216 204 181 174 167 156 146 136 124 110 98 89 85 82 79 77 75 76 73 72 74 74 67 62 59 51 35 16 2 352
138 124 147 191 81 271 204 184 168 180 201 209 224 253 83 212 187 170 159 150 141 133 123 114 107 99 90 82 78 75 72 69 68 70 71 69 64 58 52 43 28 14 3 355
148 135 123 139 193 193 215 200 193 149 139 175 203 239 84 170 166 166 159 152 147 141 133 125 115 104 94 87 80 75 68 65 65 68 69 62 53 46 40 29 17 7 358 350
138 156 185 198 195 177 190 191 183 167 190 208 224 226 187 177 171 171 169 163 156 151 145 137 126 113 101 91 83 77 69 61 62 66 63 54 40 31 24 15 8 2 354 348
157 185 190 182 136 166 190 194 193 208 218 222 229 222 210 192 186 180 173 165 162 161 158 151 138 126 114 99 87 77 70 58 54 59 53 40 26 18 12 5 358 351 346 341
170 166 147 145 160 178 202 206 205 215 224 232 238 234 208 188 180 176 177 176 176 173 166 156 145 134 122 108 93 80 65 52 47 51 43 25 14 8 2 352 344 338 335 331
168 148 156 177 147 131 236 215 208 217 221 223 236 238 164 188 193 191 186 185 182 174 167 162 154 144 132 116 99 84 70 59 55 51 37 18 4 355 347 337 332 328 325 322
162 150 145 143 153 218 232 190 206 216 225 221 231 203 186 198 195 193 188 183 178 170 165 159 151 140 127 113 97 88 78 66 57 46 27 9 355 344 335 329 324 322 318 313
166 153 153 176 210 242 256 203 189 205 233 221 225 215 184 140 124 187 183 177 171 163 154 148 141 133 124 112 101 95 78 64 51 30 9 355 345 334 328 323 320 318 313 307
166 156 162 181 206 227 228 172 173 163 245 210 208 204 176 157 191 203 165 153 144 139 137 134 130 123 115 102 95 90 75 55 32 3 345 337 331 322 315 312 311 309 305 299
173 175 189 193 216 246 203 152 149 185 232 181 197 191 177 189 204 139 141 140 138 135 133 130 125 115 104 94 93 88 68 37 3 342 329 325 321 312 304 304 303 302 300 299
179 180 189 188 211 231 158 159 188 197 116 151 165 167 164 139 119 133 139 139 138 134 131 130 124 113 96 78 75 73 46 10 350 335 325 319 314 309 306 304 301 298 297 296
197 189 180 193 210 112 167 183 166 140 156 164 157 153 143 135 141 141 141 141 138 134 129 124 122 115 94 65 55 53 13 355 341 327 317 311 309 304 301 300 300 300 295 292
217 158 159 205 231 188 193 182 169 174 164 154 149 148 149 147 147 144 142 139 134 127 123 121 122 120 108 73 54 30 357 347 328 315 313 311 310 309 307 299 292 291 291 289
180 170 178 211 205 157 238 218 192 156 131 130 129 139 151 144 146 146 144 141 137 127 120 116 119 117 102 60 31 12 355 342 322 310 307 308 306 306 305 298 288 287 278 274
188 184 187 208 190 189 205 193 174 165 164 158 144 132 132 146 146 142 141 140 137 134 127 122 116 116 89 6 339 349 348 337 318 309 310 308 305 303 300 301 298 284 281 287